Hourly Weather Roundup
Issued by NWS Central Illinois

Home | Current Version | Previous Version | Text Only | Print | Product List | Glossary On
Versions: 1 2 3 4 5 6 7 8 9 10 11 12 13 14 15 16 17 18 19 20 21 22 23 24 25 26 27 28 29 30 31 32 33 34 35 36 37 38 39 40 41 42 43 44 45 46 47 48 49 50
000
NZUS43 KILX 011410
HWRILX

AREA WEATHER ROUNDUP
NATIONAL WEATHER SERVICE, LINCOLN IL
900 AM CDT WED OCT 01 2014


CITY           SKY/WX    TMP DP  RH WIND       PRES   REMARKS
BLOOMINGTON    SUNNY     57  52  84 SE10        N/A
CHAMPAIGN      MOSUNNY   55  52  88 SE10      29.99S
DECATUR        MOSUNNY   58  53  84 SE9       29.98R
FLORA          SUNNY     62  59  90 SE5       29.98R FOG
GALESBURG      MOSUNNY   57  51  80 SE7       29.93F
JACKSONVILLE   SUNNY     62  56  82 SE7       29.93F
LACON          MOSUNNY   55  48  76 SE8       29.97S
LAWRENCEVILLE  SUNNY     61  57  87 E5        29.99R FOG
LITCHFIELD     SUNNY     60  55  83 SE7       29.95R
$$


CITY           SKY/WX    TMP DP  RH WIND       PRES   REMARKS
LINCOLN        SUNNY     60  53  76 SE10      29.94S
MACOMB         MOSUNNY   57  52  81 SE12      29.95S
MATTOON        SUNNY     59  54  83 SE6       29.98R
MT CARMEL AP   SUNNY     64  61  88 E7        29.98R
OLNEY-NOBLE AP PTSUNNY   61  57  88 CALM      29.98R FOG
PARIS          MOSUNNY   58  53  85 SE6       30.01R
PEORIA         SUNNY     59  50  72 SE9       29.97R
PONTIAC        MOSUNNY   55  50  82 SE8       29.99S
RANTOUL        MOSUNNY   57  49  73 SE8       30.00S
ROBINSON       SUNNY     61  57  87 E6        30.00R
SPRINGFIELD    SUNNY     60  53  77 SE7       29.95R
TAYLORVILLE    SUNNY     59  54  82 SE9       29.95S
$$

...REGIONAL REPORTS...


CITY           SKY/WX    TMP DP  RH WIND       PRES   REMARKS
CHICAGO O`HARE MOSUNNY   56  47  71 SE13      30.02R
KANKAKEE       SUNNY     53  49  85 SE6       30.03R
MOLINE         NOT AVBL
MOUNT VERNON   NOT AVBL
PITTSFIELD     SUNNY     62  57  85 SE8       29.92S
QUINCY         MOSUNNY   61  55  81 SE13      29.89S
ROCKFORD       MOSUNNY   54  47  77 SE9       30.02R
$$


CITY           SKY/WX    TMP DP  RH WIND       PRES   REMARKS
BURLINGTON     PTSUNNY   57  52  83 S6        29.91S
CEDAR RAPIDS   PTSUNNY   54  50  87 SE10      29.90
DES MOINES     CLOUDY    61  58  90 SE10      29.80R FOG
KIRKSVILLE     RAIN      61  60  97 E6        29.89S FOG
OTTUMWA        LGT RAIN  55  53  93 SE9       29.86F
ST LOUIS       MOSUNNY   69  60  73 SE12      29.92S
$$


CITY           SKY/WX    TMP DP  RH WIND       PRES   REMARKS
TERRE HAUTE    SUNNY     58  52  80 SE6       30.00R
EVANSVILLE     PTSUNNY   65  60  84 E3        29.98R HAZE
INDIANAPOLIS   MOSUNNY   55  49  80 E9        30.02S
LAFAYETTE      SUNNY     53  49  86 E7        30.02R
MADISON        PTSUNNY   55  47  74 SE15      29.99S
MILWAUKEE      PTSUNNY   57  49  74 S7        30.02R
$$





USA.gov is the U.S. government's official web portal to all federal, state and local government web resources and services.